Regional Weather Roundup
Issued by NWS

Home | Current Version | Previous Version | Graphics & Text | Print | Product List | Glossary On
Versions: 1 2 3 4 5 6 7 8 9 10 11 12 13 14 15 16 17 18 19 20 21 22 23 24 25 26 27 28 29 30 31 32 33 34 35 36 37 38 39 40 41 42 43 44 45 46 47 48 49 50
000
ASUS43 KLOT 262204
RWRIL

ILLINOIS REGIONAL WEATHER ROUNDUP
NATIONAL WEATHER SERVICE CHICAGO/ROMEOVILLE IL
500 PM CDT FRI AUG 26 2016

NOTE: "FAIR" INDICATES FEW OR NO CLOUDS BELOW 12,000 FEET WITH NO
SIGNIFICANT WEATHER AND/OR OBSTRUCTIONS TO VISIBILITY.

* THESE STATIONS ARE NOT UNDER NWS QUALITY CONTROL. THEY ALSO MAY NOT
  REPORT WEATHER SUCH AS PRECIPITATION OR FOG.

ILZ001-002-007-009-015-016-024-262300-
NORTHWEST ILLINOIS

CITY           SKY/WX    TMP DP  RH WIND       PRES   REMARKS
MOLINE         MOSUNNY   78  63  59 E8        30.08F HX  80
STERLING*      CLOUDY    76  65  68 E9        30.11S
SAVANNA*       CLOUDY    76  63  63 E3        30.11S
$$

ILZ003-004-008-010-011-017-018-262300-
NORTH CENTRAL ILLINOIS

CITY           SKY/WX    TMP DP  RH WIND       PRES   REMARKS
ROCKFORD       CLOUDY    77  59  53 E5        30.13S
ROCHELLE*      SUNNY     77  63  61 E5        30.12S
$$

ILZ005-006-012>014-019>023-262300-
NORTHEAST ILLINOIS

CITY           SKY/WX    TMP DP  RH WIND       PRES   REMARKS
CHICAGO-OHARE  PTSUNNY   78  59  51 E9        30.12R
CHICAGO-MIDWAY CLOUDY    77  61  57 E10       30.12R
AURORA         MOSUNNY   82  62  50 CALM      30.11S HX  83
LANSING*       CLOUDY    74  68  80 NE9       30.12S
JOLIET*        CLOUDY    81  67  64 E6        30.10S HX  83
WAUKEGAN       CLOUDY    73  60  63 E9        30.13R
DUPAGE AIRPORT CLOUDY    79  62  56 E10       30.11R HX  80
KANKAKEE*      CLOUDY    78  69  75 NE5       30.11S HX  80
WHEELING       MOSUNNY   76  59  55 E8        30.14S
MORRIS*        CLOUDY    79  67  67 SE5       30.09S HX  81
ROMEOVILLE*    CLOUDY    78  68  72 E7        30.11S
NORTHERLY ISL    N/A     72  64  76 NE7         N/A
$$

LMZ740>746-262300-
SOUTHERN LAKE MICHIGAN

STATION/POSITION SKY/WX   TEMP    WIND        PRES    VSBY  WAVE
                          AIR SEA DIR/SP/G                  HT/PER
                          (F)     (DEG/KT/KT) (MB)    (MI)  (FT/S)
SOUTHERN BUOY              71 76   20/  6/  8 1020.2          1
WILMETTE HARBOR            72 72   80/  8/ 10   N/A           1/ 3
HARRISON CRIB              73      40/ 10/ 10   N/A
BURNHAM HARBOR             72      20/  3/  7   N/A
CALUMET HARBOR             73      10/  7/ 10 1019.5F
BURNS HARBOR               74      50/ 12/ 13 1020.3S
MICHIGAN CITY              73      10/ 12/ 13   N/A
MICHIGAN CITY 6N           74 75   30/ 10/ 14   N/A           2/ 4
ST. JOSEPH                 73 76   10/ 10/ 12 1019.8F         2/ 4
$$

ILZ025>027-034>036-040-047-049-050-058-095>099-262300-
WEST-CENTRAL ILLINOIS

CITY           SKY/WX    TMP DP  RH WIND       PRES   REMARKS
QUINCY         PTSUNNY   78  72  81 E7        30.05F HX  80
GALESBURG*     CLOUDY    79  65  61 E7        30.09S HX  81
MACOMB*        CLOUDY    79  70  74 E7        30.08F HX  81
JACKSONVILLE*  CLOUDY    80  73  79 E5        30.05F HX  84
PITTSFIELD*    PTSUNNY   80  74  82 NE3       30.06F HX  85
$$

ILZ028>032-037-038-041>044-048-051>054-059>061-262300-
CENTRAL ILLINOIS

CITY           SKY/WX    TMP DP  RH WIND       PRES   REMARKS
PONTIAC        PTSUNNY   79  72  79 NE3       30.11R HX  82
BLOOMINGTON    CLOUDY    78  71  79 E8        30.09S HX  80
DECATUR        HVY RAIN  78  74  87 E12G22    30.07S FOG     HX  81
PEORIA         CLOUDY    79  71  76 E7        30.08S HX  82
LACON*         MOSUNNY   79  67  67 E3        30.09R HX  81
LINCOLN*       CLOUDY    81  75  83 NE6       30.05F HX  86
SPRINGFIELD    CLOUDY    82  74  76 NE7       30.05F HX  88
TAYLORVILLE    CLOUDY    76  70  81 SE20G26   30.06R
$$

ILZ033-039-045-046-055>057-062-063-262300-
EAST-CENTRAL ILLINOIS

CITY           SKY/WX    TMP DP  RH WIND       PRES   REMARKS
CHAMPAIGN      CLOUDY    76  71  85 SE7       30.08F
RANTOUL*       CLOUDY    82  76  81 E5        30.08F HX  90
MATTOON        TSTM      72  68  87 SE17G24   30.09S FOG
PARIS*         RAIN      72  71  96 CALM      30.10F
$$

ILZ079-100>102-262300-
SOUTHWEST ILLINOIS

CITY           SKY/WX    TMP DP  RH WIND       PRES   REMARKS
ALTON          CLOUDY    81  70  69 E14       30.04S HX  84
BELLEVILLE     CLOUDY    87  74  66 NE9G23    30.02S HX  95
CAHOKIA*       CLOUDY    90  72  55 CALM      30.01F HX  97
SPARTA*        MOSUNNY   83  75  76 S3        30.04S HX  90
$$

ILZ064>066-069>071-074>076-080>082-084>086-088>090-092>094-262300-
SOUTH-CENTRAL ILLINOIS

CITY           SKY/WX    TMP DP  RH WIND       PRES   REMARKS
CARBONDALE     PTSUNNY   84  72  67 CALM      30.03F HX  89
EFFINGHAM*     LGT RAIN  73  73 100 CALM      30.07F
MARION         MOSUNNY   84  73  70 S5        30.04F HX  91
MT. VERNON     CLOUDY    82  72  69 NE9       30.06F HX  87
CENTRALIA*     CLOUDY    80  75  85 E5        30.05F HX  85
SALEM*         MOSUNNY   79  73  81 NE6       30.06F HX  83
METROPOLIS*    CLOUDY    83  73  73 N3        30.03S HX  89
$$

ILZ067-068-072-073-078-083-087-091-262300-
SOUTHEAST ILLINOIS

CITY           SKY/WX    TMP DP  RH WIND       PRES   REMARKS
LAWRENCEVILLE  CLOUDY    85  76  74 W9        30.06S HX  94
FLORA*         CLOUDY    82  73  76 N6        30.05F HX  87
FAIRFIELD*     CLOUDY    78  71  80 N3        30.05S HX  80
HARRISBURG*    MOSUNNY   82  74  76 NE5       30.04S HX  88
ROBINSON*      CLOUDY    79  71  77 N9        30.08R HX  81
CARMI*         MOSUNNY   83  75  76 NE3       30.04S HX  90
$$

ABBREVIATIONS USED IN REMARKS
   TC - TEMPERATURE IN CELSIUS
  WCI - WIND CHILL INDEX
   HX - HEAT INDEX
  VSB - VISIBILITY
$$





USA.gov is the U.S. government's official web portal to all federal, state and local government web resources and services.